Home   Weather   Holguín   Past weeks

Flag for Cuba Past Weather in Holguín, Cuba — Yesterday and Last 2 Weeks

Now
93 °F

Scattered clouds.


Feels Like: 101 °F
Forecast: 76 / 90 °F
Wind: 6 mph from East

Location: Holguin Civ / Mil

Current Time: Jul 28, 2017 at 1:03:57 pm

Latest Report: Jul 28, 2017 at 11:50 am


Visibility: 6 mi

Pressure: 29.95 "Hg

Humidity: 49%

Dew Point: 72 °F

Location of HolguínLocation

Past Weather in Holguín — Graph

°F

Holguín Temperature Yesterday

Maximum temperature yesterday: 95 °F (at 1:51 pm)
Minimum temperature yesterday: 77 °F (at 4:50 am)
Average temperature yesterday: 84 °F

High & Low Weather Summary for the Past Weeks

 TemperatureHumidityPressure
High97 °F (Jul 14, 2:50 pm)100% (Jul 15, 5:51 am)30.07 "Hg (Jul 15, 5:51 am)
Low70 °F (Jul 15, 5:51 am)30% (Jul 26, 2:50 pm)29.89 "Hg (Jul 27, 2:52 pm)
Average83 °F74%30.01 "Hg
* Reported Jul 13 10:50 am — Jul 28 10:50 am, Holguín. Weather by CustomWeather, © 2017

Note: Actual official high and low records may vary slightly from our data, if they occured in-between our weather recording intervals... More about our weather records

Advertising

Holguín Weather History for the Previous 24 Hours

Scroll right to see more
 ConditionsComfort  
Time TempWeatherWind HumidityBarometerVisibility
10:50 am
Fri, Jul 28
88 °FScattered clouds.5 mph59%29.95 "Hg6 mi
9:50 am86 °FScattered clouds.5 mph62%29.98 "Hg6 mi
8:50 am79 °FScattered clouds.5 mph89%29.98 "Hg5 mi
7:50 am77 °FPassing clouds.2 mph89%29.98 "Hg5 mi
6:50 am73 °FFog.No wind100%29.95 "Hg4 mi
5:52 am73 °FFog.1 mph94%29.95 "Hg5 mi
4:51 am75 °FFog.2 mph94%29.95 "Hg5 mi
3:50 am75 °FFog.1 mph94%29.95 "Hg5 mi
2:50 am77 °FClear.2 mph94%29.95 "Hg10 mi
1:50 am79 °FClear.3 mph89%29.95 "Hg10 mi
12:50 am79 °FClear.2 mph89%29.98 "Hg10 mi
11:51 pm
Thu, Jul 27
81 °FPassing clouds.5 mph84%29.98 "Hg6 mi
10:50 pm81 °FPassing clouds.8 mph84%29.98 "HgN/A
9:50 pm82 °FPassing clouds.5 mph79%29.98 "HgN/A
8:50 pm82 °FPassing clouds.6 mph74%29.98 "HgN/A
7:51 pm84 °FPassing clouds.8 mph66%29.95 "HgN/A
6:50 pm86 °FBroken clouds.10 mph66%29.92 "Hg6 mi
4:51 pm90 °FThundershowers. Scattered clouds.18 mph55%29.89 "Hg5 mi
3:52 pm90 °FThundershowers. Partly sunny.14 mph52%29.89 "Hg5 mi
2:52 pm95 °FPartly sunny.13 mph41%29.89 "Hg6 mi
1:51 pm95 °FPartly sunny.9 mph44%29.92 "HgN/A
Weather by CustomWeather, © 2017

See weather overviewHow to use our weather pages